Theta_e
299 299 299 301 300 299 299 299 302 303 303 303 302 302 301 301 302 301 301 301 301 301 302 302 301 302 302 303 304 304 303 304 301 303 307 313 317 315 319 321 320 319 320
298 300 301 299 298 297 298 302 303 302 302 301 301 301 301 301 301 301 301 301 301 301 302 302 302 303 302 303 303 303 304 305 304 303 307 310 315 310 315 316 317 317 317
301 300 297 297 297 298 302 301 302 301 301 301 301 301 301 301 301 302 302 302 304 305 305 303 302 303 302 303 304 304 305 307 308 307 307 311 315 313 312 313 312 313 315
300 299 296 297 298 301 303 302 301 301 300 301 301 302 302 302 302 302 304 305 304 305 305 306 304 304 303 304 305 305 307 307 309 308 307 307 312 314 312 309 308 311 310
299 297 297 298 300 302 303 303 302 301 301 301 301 302 302 302 302 302 304 305 303 303 305 306 307 309 311 308 306 306 307 307 308 308 307 311 310 309 308 309 307 307 308
297 298 299 300 302 303 303 302 302 299 299 301 301 301 301 302 301 302 305 304 304 303 303 304 305 306 307 310 311 311 310 307 306 306 307 311 311 311 310 308 306 304 302
298 299 300 300 300 300 299 300 297 297 297 300 300 301 300 300 299 300 302 303 303 303 303 303 304 305 305 305 306 306 306 306 307 307 308 306 306 308 308 306 305 304 303
298 299 300 300 299 298 297 297 295 296 297 297 299 301 300 300 299 298 300 303 303 303 304 302 302 303 303 305 305 304 304 305 305 306 306 306 308 308 308 307 306 306 306
298 299 300 300 299 297 296 296 294 293 295 296 299 298 299 299 298 297 298 302 303 302 303 303 301 300 298 300 306 304 304 305 306 304 303 302 301 302 306 307 305 304 302
298 299 300 300 299 296 296 292 293 293 294 296 299 300 300 297 297 297 297 300 301 302 303 302 302 298 297 297 302 304 303 304 305 305 306 306 306 307 307 307 306 303 303
299 301 301 300 298 297 294 292 292 292 292 293 293 295 295 296 296 296 296 300 299 301 301 301 301 298 297 297 299 301 299 302 305 304 304 304 305 304 307 308 307 305 301
300 301 300 298 299 297 293 292 292 291 290 292 292 294 293 294 297 296 296 296 299 300 299 300 300 297 297 297 300 297 298 303 304 303 303 303 303 303 305 305 305 305 305
300 299 299 298 297 297 293 291 290 290 290 291 292 291 291 294 294 295 295 296 299 300 301 300 299 298 299 300 298 298 300 301 301 300 300 301 302 302 303 304 306 303 300
298 297 299 295 296 296 294 292 290 289 290 291 291 289 289 290 291 291 295 296 297 298 301 299 299 298 297 299 299 300 300 299 299 298 299 300 300 300 300 301 299 302 300
299 296 296 298 295 295 292 291 291 289 289 288 287 289 289 289 293 292 293 295 296 296 297 296 295 295 295 295 296 297 298 297 297 298 298 297 297 298 298 299 298 298 298
296 297 295 296 294 294 292 291 292 292 291 291 291 289 291 293 292 293 292 292 292 293 295 293 292 293 292 293 292 293 295 295 296 296 296 296 296 296 296 297 297 297 296
295 294 294 296 293 292 291 290 290 291 292 292 291 291 291 292 292 292 293 293 291 293 292 291 291 291 291 291 292 292 292 293 295 295 294 295 295 295 296 296 296 296 295
296 297 294 295 293 291 291 291 292 292 291 290 291 291 293 292 292 292 292 294 293 293 292 291 291 291 291 291 291 291 291 292 293 293 293 293 294 294 294 295 295 294 294
296 294 294 295 292 292 291 291 291 292 292 292 293 293 293 294 293 293 293 293 291 291 291 291 291 292 292 291 291 291 291 291 291 292 291 292 293 293 293 294 294 290 291
296 294 294 293 292 291 291 291 291 290 290 292 291 291 292 295 295 294 294 294 292 292 292 292 292 293 291 291 290 290 290 290 290 290 290 291 292 293 292 293 294 293 293
297 294 290 293 292 292 292 291 292 291 290 291 291 290 286 295 294 293 293 294 293 293 293 293 293 291 291 290 290 290 289 289 289 289 289 290 292 292 293 294 295 294 294
294 294 294 292 292 291 291 292 293 292 292 292 292 293 288 296 294 294 294 294 294 295 294 293 292 291 291 290 290 289 288 288 288 288 289 290 291 292 293 293 294 294 295
295 294 293 292 292 290 292 294 292 291 294 293 293 295 296 295 294 294 294 295 295 295 294 293 292 291 291 290 290 289 288 288 288 288 288 290 291 291 292 292 293 294 294
295 294 293 292 291 292 293 293 293 292 294 294 294 295 295 294 294 294 294 295 294 294 292 292 291 290 290 289 289 289 288 288 287 288 290 290 292 292 292 293 293 295 295
294 291 290 289 290 293 293 293 294 294 294 294 295 295 295 294 294 294 294 293 292 292 291 290 290 290 290 289 288 287 286 285 286 286 290 293 293 293 293 294 295 296 296
293 292 289 290 291 294 293 294 294 294 294 296 295 295 295 294 294 293 292 291 291 290 290 289 290 290 290 288 287 285 285 285 287 285 290 294 293 293 294 295 296 296 296
Wind_Speed
8 6 8 8 7 6 6 7 10 11 12 12 13 13 13 13 13 12 12 13 12 13 12 12 13 11 8 6 6 6 7 7 9 7 7 7 4 5 6 6 6 7 9
6 9 7 6 6 6 7 9 10 11 11 11 12 12 13 13 13 13 13 13 13 13 11 9 10 7 9 8 6 8 7 7 8 11 5 4 2 2 3 5 6 6 7
8 6 6 6 6 7 7 8 8 9 11 12 12 12 13 13 13 12 12 12 11 11 8 6 8 8 8 6 6 7 7 7 7 6 6 4 3 1 4 5 5 5 5
4 4 6 6 7 7 6 7 7 8 9 11 12 12 12 13 11 12 12 11 11 10 10 7 7 7 7 7 6 7 6 6 6 5 5 3 2 2 1 3 2 2 4
6 6 6 7 7 7 7 6 7 7 8 8 10 12 12 11 11 13 12 12 12 12 10 10 9 9 11 11 5 5 5 6 4 4 5 2 3 3 3 2 2 2 2
6 7 6 7 7 6 6 5 6 7 8 8 7 10 11 10 21 21 17 11 12 13 12 11 10 13 12 9 7 10 7 4 4 3 4 3 3 3 3 5 6 3 2
6 6 6 6 6 6 7 6 7 8 7 7 7 7 9 11 21 20 21 10 10 11 12 11 11 10 14 11 13 13 11 10 7 4 3 3 2 1 3 4 2 2 3
7 6 7 5 6 7 7 7 8 6 7 7 6 6 6 7 19 20 18 10 9 10 11 12 10 10 10 10 8 9 8 8 8 6 7 5 4 4 3 2 3 4 3
6 6 7 5 5 7 8 7 6 6 9 6 3 5 6 8 16 20 14 8 9 8 6 7 9 10 13 12 6 7 7 6 6 9 9 9 9 10 7 3 3 3 2
6 6 7 6 5 6 5 7 6 5 6 9 4 5 7 10 15 20 15 6 8 7 7 9 13 11 14 14 9 5 5 4 4 4 4 5 6 5 7 4 1 3 2
6 7 7 7 4 3 3 4 6 7 7 8 7 6 6 8 12 17 19 9 4 5 6 7 7 13 15 16 14 11 8 4 5 4 4 4 4 5 5 5 5 4 3
7 7 5 7 4 2 3 5 6 7 7 7 6 7 6 8 14 16 18 17 13 5 6 5 7 15 16 14 13 16 17 11 7 7 6 6 5 4 4 4 6 5 5
7 7 7 6 5 1 3 4 4 6 5 5 5 5 5 7 8 17 16 17 15 7 5 11 15 16 15 12 15 17 14 9 8 8 7 6 5 4 5 3 4 6 6
6 7 7 7 5 3 3 3 3 4 4 4 5 5 5 5 6 7 8 8 12 10 9 10 11 10 10 11 11 10 8 8 7 7 6 6 5 5 5 4 3 0 3
6 6 6 7 5 1 1 1 2 1 2 2 4 4 4 6 7 6 6 8 8 9 8 9 9 9 9 9 8 9 8 8 8 7 6 6 6 6 4 4 4 4 3
6 5 5 6 4 4 1 3 2 3 3 4 6 2 4 6 12 14 9 14 17 14 8 9 8 8 9 9 9 8 8 9 8 7 6 6 6 5 5 3 3 3 3
4 6 5 5 5 3 4 4 4 3 6 6 10 8 8 5 11 12 13 10 14 11 9 8 8 8 8 8 8 8 8 7 7 6 6 6 6 6 6 3 3 3 3
4 8 5 5 4 4 3 4 4 3 2 2 6 6 8 8 7 13 14 8 9 8 5 5 5 6 6 6 7 6 7 7 6 6 6 6 6 6 6 5 3 3 3
2 4 5 5 4 5 4 4 3 4 3 2 3 3 5 10 9 9 8 5 4 4 4 5 5 5 6 4 6 6 6 6 6 6 6 6 6 5 5 5 2 3 3
2 5 5 5 3 4 4 5 5 4 4 4 4 4 5 5 6 6 4 2 3 4 4 4 5 5 6 5 5 5 5 4 5 5 5 6 5 4 4 5 3 2 2
4 3 5 4 5 4 3 4 4 5 4 4 3 3 4 6 6 6 6 6 6 6 4 4 5 6 4 6 5 5 5 4 5 5 5 5 5 4 4 4 3 3 3
2 4 3 4 4 5 5 4 4 5 6 4 2 4 7 5 5 6 6 6 7 7 3 4 5 5 3 5 5 5 5 5 5 5 5 5 5 4 4 4 3 3 3
4 5 5 4 5 5 5 5 4 5 5 5 4 7 7 7 7 7 8 8 7 6 5 5 6 5 5 5 5 4 5 4 4 5 5 5 5 3 4 4 3 3 2
5 6 6 5 5 5 5 5 6 6 6 5 6 7 7 6 7 9 9 8 8 5 6 5 6 8 7 6 5 4 4 4 5 5 7 5 4 4 4 3 3 4 2
5 5 5 5 5 4 5 5 5 5 6 6 7 6 7 8 8 8 8 8 7 7 7 8 7 9 8 9 8 9 7 7 5 5 4 4 4 5 3 2 2 2 2
6 6 4 4 5 4 5 6 6 6 5 6 6 7 6 8 8 8 8 9 7 8 9 8 9 12 10 8 9 10 8 7 5 5 4 3 3 3 3 3 4 3 2
Wind_Direction
27 21 11 3 350 337 327 326 326 325 332 330 324 318 317 315 312 305 299 294 288 282 273 260 258 259 261 254 243 246 256 253 270 286 278 293 22 4 14 3 35 58 61
9 17 2 343 339 331 328 333 337 330 331 331 328 325 323 321 316 310 306 301 295 289 286 269 258 256 258 249 243 248 248 249 266 273 279 274 317 316 52 43 34 48 72
31 360 335 329 321 324 327 333 322 331 334 336 335 333 330 325 320 317 310 303 307 316 290 271 261 257 258 248 241 249 248 251 245 254 269 188 189 78 59 49 68 62 65
357 2 317 311 312 303 300 301 307 323 325 338 342 340 338 333 333 330 332 338 339 335 334 306 267 252 254 250 248 253 265 276 269 261 270 262 172 116 107 136 74 48 80
322 317 312 307 298 295 287 285 303 313 309 318 345 349 349 352 352 351 355 354 355 353 359 1 357 351 283 247 243 261 272 294 321 313 306 237 142 139 179 136 115 103 48
306 299 299 305 304 312 319 320 308 304 301 313 344 348 354 359 351 358 4 358 5 8 4 5 4 8 360 351 263 268 276 292 305 292 291 319 133 134 136 154 150 145 186
306 309 313 318 329 334 340 336 322 307 286 300 330 330 354 7 359 1 357 358 359 4 6 1 16 22 22 24 42 50 38 20 1 299 315 12 35 52 129 129 140 132 183
342 345 338 348 349 337 339 332 322 312 317 293 310 331 337 357 5 2 354 354 1 3 8 12 6 7 11 16 21 34 31 31 31 33 39 28 45 55 73 118 121 107 72
355 339 331 330 349 342 338 331 325 326 333 309 299 356 352 359 359 2 355 349 348 351 356 8 22 2 5 8 17 19 12 12 15 48 61 62 53 52 50 66 69 117 89
345 316 314 312 344 349 339 351 317 327 335 343 17 26 355 10 359 357 1 352 354 342 342 2 1 7 9 21 26 358 15 353 2 14 10 34 38 39 46 54 72 65 78
316 305 309 305 302 358 9 350 344 343 350 357 13 348 5 7 354 352 351 6 340 343 356 2 9 14 23 21 26 24 11 330 1 27 30 24 42 37 39 39 49 65 58
319 320 330 329 351 104 66 8 356 356 358 358 3 359 3 355 350 350 352 357 8 26 17 5 1 13 10 22 26 15 11 18 24 31 31 21 22 26 30 49 49 59 71
343 342 341 330 354 55 58 47 13 357 6 346 350 2 355 352 353 350 351 356 0 6 6 14 13 17 13 18 16 19 20 18 18 22 17 13 9 12 13 35 73 83 54
352 342 339 336 338 13 47 91 59 4 1 354 357 4 346 341 346 344 356 358 359 5 11 24 20 21 24 16 18 18 17 17 14 15 11 2 5 9 18 2 23 69 87
342 338 345 328 349 305 113 182 159 220 121 17 342 338 0 356 347 335 12 18 15 16 21 26 19 15 12 12 10 11 14 12 11 5 6 5 5 4 3 0 6 8 62
351 338 331 330 337 342 285 282 272 197 203 283 299 291 307 345 359 9 16 31 17 9 31 26 16 12 10 5 3 1 4 6 1 1 2 1 360 356 349 359 17 33 46
350 334 329 344 328 353 350 5 328 271 263 260 277 294 301 296 5 18 22 30 32 20 33 19 14 7 2 357 355 353 351 356 350 3 358 356 353 351 351 4 7 15 33
335 335 344 333 341 340 355 354 359 48 92 250 280 256 306 336 24 36 19 13 24 20 15 2 352 351 348 353 346 345 342 346 351 358 354 350 352 349 350 358 9 16 11
11 332 335 346 338 355 349 340 351 21 88 74 22 353 350 26 42 51 36 31 4 343 335 342 335 335 344 340 339 338 339 343 349 352 348 343 341 344 345 346 353 24 17
2 317 357 339 327 359 357 6 356 351 42 73 43 0 337 27 18 8 356 317 306 300 305 319 329 357 337 344 342 339 337 340 348 340 337 329 329 332 334 331 340 6 9
318 310 345 7 1 347 2 6 0 4 61 95 72 360 334 33 15 355 347 344 338 326 327 340 2 331 352 339 333 337 331 329 340 331 328 326 328 329 327 324 328 346 4
14 12 18 22 359 2 353 1 15 12 37 94 18 3 23 11 10 347 335 335 338 328 14 15 334 325 344 337 329 335 325 324 333 328 323 323 324 328 333 333 341 348 4
39 24 19 9 11 4 12 9 16 32 64 50 26 24 11 17 356 340 337 333 348 18 357 357 355 342 340 338 328 326 317 319 317 307 305 318 317 332 326 325 332 345 356
34 32 26 10 11 18 18 12 7 49 47 46 31 25 10 2 343 337 342 11 358 0 353 352 354 341 334 336 326 323 309 316 302 290 307 302 317 329 323 332 328 328 29
43 47 35 12 359 19 29 20 39 20 40 34 25 13 6 356 344 356 14 354 1 359 358 350 343 337 342 341 338 334 321 315 301 295 293 310 320 323 326 316 321 351 34
54 42 24 11 356 23 40 52 34 34 19 27 15 4 355 351 14 10 6 358 359 355 347 344 337 342 347 344 339 329 329 332 322 308 305 311 336 338 338 5 356 353 27